www.pogodaiklimat.ru

Погода и климат >> Архив погоды >> Словакия >> Гурбаново


ПОГОДА в Гурбаново

  • Прогноз погоды в Гурбаново
  • Монитор погоды в Гурбаново

АРХИВ ПОГОДЫ в Гурбаново

Время (UTC), дата Ветер
(напр.,м/с)
 
Видим.   Явления Облачность Т
(С)
Тd
(С)
f
(%)
Тe
(С)
Тes
(С)
Комфортность P
(гПа)
Po
(гПа)
Тmin
(С)
Tmax
(С)
R
(мм)
R24
(мм)
S
(см)
10 12.06 Ю 7 30 км 1/1 1080 м
[Cu hum Ci fib]
+29.3 +16.8 47 +33 +37 душно 1013.7 1000.6
11 12.06 Ю 7 30 км 1/1 1200 м
[Cu hum Ac cast Ci fib]
+30.1 +17.9 48 +35 +39 очень
душно
1013.3 1000.2
12 12.06 Ю 6 35 км 1/1 1300 м
[Cu hum Ac cast Ci fib]
+30.7 +18.5 48 +36 +42 очень
душно
1012.7 999.7
13 12.06 ЮВ 6 40 км 1/1 1380 м
[Cu hum]
+30.9 +18.0 46 +35 +40 очень
душно
1012.3 999.3
14 12.06 Ю 5 55 км 1/1 1380 м
[Cu hum]
+31.9 +18.2 44 +36 +42 очень
душно
1011.9 998.9
15 12.06 ЮВ 5 60 км 1/1 1500 м
[Cu hum]
+31.9 +17.8 43 +36 +40 очень
душно
1011.7 998.7
16 12.06 н/о н/о +31.6 +17.9 44 1011.5 998.5
17 12.06 ЮВ 4 н/о н/о +30.2 +18.6 50 +35 +35 очень
душно
1011.1 998.1
18 12.06 ЮВ 3 60 км 3/0
[Cs]
+28.2 +18.9 57 +33 +34 очень
душно
1011.4 998.3 +32.1
19 12.06 ЮВ 3 45 км 3/0
[Cs]
+26.3 +18.2 61 +31 +31 душно 1011.7 998.5
20 12.06 ЮВ 3 40 км 1/0
[Cs]
+24.8 +17.0 62 +29 +29 душно 1011.9 998.6
21 12.06 ЮВ 3 н/о н/о +24.2 +17.2 65 +28 +28 душно 1012.5 999.2
22 12.06 ЮВ 3 н/о н/о +22.4 +17.3 73 +27 +27 душно 1013.1 999.7
23 12.06 В 3 н/о н/о +22.0 +16.7 72 +26 +26 душно 1012.8 999.4
00 13.06 В 3 н/о н/о +22.1 +16.8 72 +26 +26 душно 1012.7 999.3
01 13.06 В 2 н/о н/о +21.4 +16.6 74 +25 +25 комфорт 1012.8 999.3
02 13.06 В 3 н/о н/о +20.8 +16.8 78 +25 +25 комфорт 1012.8 999.3
03 13.06 В 3 н/о н/о +20.7 +16.7 78 +25 +25 комфорт 1013.0 999.5
04 13.06 В 3 н/о н/о +21.3 +17.3 78 +25 +25 комфорт 1012.9 999.4
05 13.06 ЮВ 3 н/о н/о +23.4 +17.8 71 +29 +29 душно 1012.9 999.5
06 13.06 ЮВ 3 25 км ясно +25.8 +18.0 62 +30 +34 душно 1013.2 999.9 +20.6
07 13.06 ЮВ 3 40 км 1/1 1080 м
[Cu hum]
+27.4 +18.4 58 +32 +39 очень
душно
1013.3 1000.1
08 13.06 ЮВ 4 40 км 1/1 1200 м
[Cu hum]
+28.9 +19.3 56 +34 +42 очень
душно
1013.1 1000.0
09 13.06 ЮВ 5 45 км ясно +30.4 +18.2 48 +35 +43 очень
душно
1013.0 1000.0
10 13.06 ЮВ 5 45 км 1/1 1200 м
[Cu hum Ci fib]
+31.3 +19.0 48 +37 +45 очень
душно
1013.0 1000.0
11 13.06 Ю 5 45 км 3/0
[Ci]
+32.0 +19.0 46 +37 +46 очень
душно
1013.0 1000.0
12 13.06 Ю 6 55 км 3/0
[Ci]
+32.5 +19.1 45 +38 +44 очень
душно
1012.4 999.4
13 13.06 Ю 5 55 км 3/1 1200 м
[Cu Sc Ci]
+33.3 +19.1 43 +38 +45 очень
душно
1012.2 999.3
14 13.06 ЮВ 6 55 км 3/3 1200 м
[Cu med, cong]
+33.5 +19.2 43 +39 +42 очень
душно
1011.8 998.9
15 13.06 ЮВ 6 55 км 4/4 1200 м
[Cu med, cong]
+33.5 +18.9 42 +38 +40 очень
душно
1011.7 998.8
16 13.06 Ю 3 55 км 4/4 1200 м
[Cu med, cong]
+32.2 +19.8 48 +38 +40 очень
душно
1011.4 998.5
17 13.06 Ю 3 55 км 3/3 1200 м
[Cu med, cong Cs]
+31.8 +18.8 46 +37 +38 очень
душно
1011.5 998.5
18 13.06 Ю 4 45 км 1/0
[Cs]
+29.8 +19.5 54 +36 +36 очень
душно
1011.4 998.3 +33.7
19 13.06 Ю 3 40 км 4/0
[Cs]
+27.9 +18.9 58 +33 +33 очень
душно
1012.1 999.0
20 13.06 Ю 2 40 км 3/0
[Cs]
+25.6 +19.0 67 +31 +31 очень
душно
1013.1 999.8
21 13.06 Ю 3 н/о н/о +24.0 +18.9 73 +29 +29 душно 1013.6 1000.3
22 13.06 ЮВ 2 н/о н/о +22.4 +18.6 79 +28 +28 душно 1014.2 1000.8
23 13.06 Ю 3 н/о н/о +21.5 +17.7 79 +26 +26 душно 1014.1 1000.6
00 14.06 Ю 3 н/о н/о +20.6 +17.2 81 +24 +24 комфорт 1014.1 1000.6
01 14.06 ЮВ 3 н/о н/о +20.2 +16.8 81 +23 +23 комфорт 1014.1 1000.6
02 14.06 Ю 2 н/о н/о +19.6 +16.8 84 +22 +22 комфорт 1014.8 1001.2
03 14.06 Ю 1 н/о н/о +18.2 +16.5 90 +20 +20 1015.5 1001.9
04 14.06 ЮВ 1 н/о н/о +18.2 +16.7 91 +20 +20 1015.9 1002.3
05 14.06 н/о н/о +20.9 +17.5 81 1015.9 1002.4
06 14.06 нст 1 30 км 1/0
[Ci fib]
+24.1 +17.1 65 +28 +34 душно 1016.4 1003.0 +18.0
07 14.06 35 км 1/0
[Ci fib]
+25.9 +17.3 59 1016.7 1003.4
08 14.06 40 км 1/0
[Cs]
+27.5 +17.4 54 1017.3 1004.1
09 14.06 нст 1 40 км 1/0
[Cs]
+29.1 +17.0 48 +33 +51 опасность
солнечного
удара
1017.5 1004.3
10 14.06 40 км ясно +30.0 +16.8 45 1017.6 1004.5
11 14.06 40 км 1/1 1000 м
[Cu med, cong]
+31.4 +15.8 39 1017.5 1004.4
12 14.06 нст 2 40 км 1/1 1000 м
[Cu med, cong]
+32.3 +13.5 32 +33 +49 жарко 1017.2 1004.1
13 14.06 40 км 1/1 1080 м
[Cu med, cong Ci fib]
+33.4 +15.9 35 1016.6 1003.6
14 14.06 40 км 1/1 1500 м
[Cu hum]
+33.6 +14.7 32 1016.6 1003.6
15 14.06 Ю 2 40 км ясно +33.8 +13.8 30 +35 +42 очень
жарко
1016.3 1003.3
16 14.06 н/о н/о +33.7 +14.8 32 1015.9 1002.9
17 14.06 н/о н/о +32.2 +10.9 27 1015.8 1002.8
18 14.06 нст 1 35 км ясно +28.8 +16.7 48 +32 +33 душно 1016.0 1002.8 +34.0
19 14.06 30 км ясно +26.1 +17.5 59 1016.2 1002.9
20 14.06 30 км ясно +23.8 +17.3 67 1016.8 1003.4
21 14.06 ЮВ 2 н/о н/о +22.2 +16.3 69 +26 +26 душно 1016.8 1003.3
22 14.06 ЮВ 1 н/о н/о +21.3 +16.7 75 +25 +25 комфорт 1016.6 1003.1
23 14.06 н/о н/о +20.7 +16.3 76 1016.1 1002.6
00 15.06 нст 2 н/о н/о +19.7 +16.6 82 +23 +23 комфорт 1016.0 1002.4
01 15.06 н/о н/о +18.7 +15.4 81 1016.0 1002.4
02 15.06 ЮВ 2 н/о н/о +18.0 +14.7 81 +19 +19 1015.7 1002.0
03 15.06 СВ 1 н/о н/о +16.9 +14.9 88 +18 +18 1015.9 1002.2
04 15.06 н/о н/о +17.4 +15.4 88 1015.9 1002.2
05 15.06 н/о н/о +20.1 +16.2 78 1015.4 1001.8
06 15.06 ЮВ 3 30 км 3/0
[Ci sp]
+25.6 +17.8 62 +30 +34 душно 1015.0 1001.7 +16.8
07 15.06 ЮВ 3 30 км 5/0
[Ci sp]
+28.6 +17.8 52 +33 +40 очень
душно
1014.6 1001.4
08 15.06 Ю 2 30 км 5/0
[Ci sp]
+30.0 +16.1 43 +33 +44 душно 1014.7 1001.6
09 15.06 Ю 4 30 км 5/0
[Ci sp]
+31.1 +13.9 35 +33 +42 душно 1014.7 1001.6
10 15.06 Ю 4 30 км 6/0
[Ci]
+32.1 +12.4 30 +33 +43 жарко 1014.4 1001.4
11 15.06 Ю 5 35 км 6/0
[Ci]
+31.6 +12.9 32 +32 +41 жарко 1014.0 1001.0
12 15.06 Ю 4 35 км 6/0
[Ci]
+31.7 +14.8 36 +34 +44 душно 1013.8 1000.8
13 15.06 Ю 4 35 км 6/0
[Ci]
+32.5 +15.5 36 +35 +44 душно 1013.2 1000.2
14 15.06 Ю 4 35 км 4/0
[Ci sp]
+33.0 +15.1 34 +35 +42 душно 1012.8 999.8
15 15.06 Ю 3 40 км 5/1 1380 м
[Cb cap Ci sp]
+33.4 +17.2 38 +37 +42 очень
душно
1012.3 999.4
16 15.06 Ю 4 40 км 5/1 1380 м
[Cb cap Ci sp]
+33.1 +15.6 35 +35 +38 душно 1011.9 999.0
17 15.06 Ю 3 40 км 6/1 1200 м
[Cb cap Ci sp]
+30.2 +17.3 46 +34 +35 очень
душно
1011.6 998.5
18 15.06 ЮВ 3 35 км 4/0
[Ci sp]
+28.3 +18.4 55 +33 +33 очень
душно
1011.2 998.1 +33.5
19 15.06 35 км 3/0
[Ci sp]
+26.4 +18.6 62 1011.5 998.3
20 15.06 35 км 3/0
[Ci sp]
+24.0 +18.4 71 1012.1 998.8
21 15.06 ЮВ 2 н/о н/о +22.8 +17.9 74 +28 +28 душно 1012.5 999.1
22 15.06 В 3 н/о н/о +22.5 +17.2 72 +27 +27 душно 1012.5 999.1
23 15.06 С 3 н/о н/о +20.7 +17.5 82 +25 +25 комфорт 1013.1 999.6
00 16.06 нст 1 н/о н/о +20.6 +16.6 78 +25 +25 комфорт 1012.7 999.2
01 16.06 ЮВ 3 н/о н/о +19.9 +16.6 81 +23 +23 комфорт 1012.4 998.9
02 16.06 н/о н/о +19.3 +16.2 82 1012.4 998.8
03 16.06 н/о н/о +18.5 +16.3 87 1012.4 998.8
04 16.06 н/о н/о +19.0 +16.6 86 1012.8 999.2
05 16.06 н/о н/о +21.0 +16.8 77 1013.0 999.5
06 16.06 нст 1 30 км 5/0
[Ac trans]
+24.5 +17.3 64 +28 +33 душно 1012.7 999.4 +18.4
07 16.06 З 3 30 км 5/5 800 м
[Sc Ac trans]
+27.6 +19.7 62 +33 +37 очень
душно
1013.6 1000.4
08 16.06 СЗ 4 20 км слаб. дождь 8/6 600 м
[Sc Ac lent]
+24.6 +19.2 72 +30 +32 очень
душно
1014.4 1001.1
09 16.06 нст 2 25 км {дождь} 6/0
[Ac lent]
+26.4 +20.0 68 +32 +41 очень
душно
1014.5 1001.3
10 16.06 СЗ 4 20 км 4/4 800 м
[Cu Sc]
+28.0 +20.1 62 +34 +42 очень
душно
1014.7 1001.5
11 16.06 СЗ 5 20 км 4/4 900 м
[Cu Sc Cc]
+29.6 +20.5 58 +36 +42 очень
душно
1014.6 1001.5
12 16.06 С 5 25 км {дождь} 3/3 1080 м
[Cu Sc]
+30.0 +19.1 52 +35 +42 очень
душно
1014.3 1001.2 0.0
13 16.06 СЗ 4 25 км 5/4 1080 м
[Cu Sc Cs]
+30.4 +19.5 52 +36 +42 очень
душно
1014.2 1001.1
14 16.06 СЗ 6 25 км 9/1 1000 м
[Cb cap Cs]
+28.5 +18.6 55 +34 +37 очень
душно
1013.8 1000.7
15 16.06 СЗ 7 25 км 10/1 1000 м
[Cb cap Cs]
+27.4 +17.6 55 +32 +33 очень
душно
1013.6 1000.4
16 16.06 СЗ 5 25 км 10/1 1000 м
[Cb cap Cs]
+26.7 +17.5 57 +31 +32 душно 1014.8 1001.6
17 16.06 СЗ 4 20 км 9/1 1000 м
[Cb cap Cs]
+26.0 +17.7 60 +30 +31 душно 1015.0 1001.7
18 16.06 СЗ 4 20 км 9/5 1200 м
[Sc Cs]
+25.2 +17.7 63 +29 +29 душно 1014.9 1001.6 +30.8
19 16.06 С 5 20 км 8/6 1200 м
[Sc Ci fib]
+24.4 +16.9 63 +28 +28 душно 1014.7 1001.4
20 16.06 СЗ 4 20 км 8/5 1200 м
[Sc Ci fib]
+23.7 +17.2 67 +28 +28 душно 1016.1 1002.7
21 16.06 С 5 н/о н/о +23.4 +17.2 68 +29 +29 душно 1016.6 1003.2
22 16.06 Ю 3 н/о н/о +18.5 +17.4 93 +19 +19 1018.0 1004.3
23 16.06 н/о н/о +18.6 +17.8 95 1017.8 1004.2
00 17.06 СЗ 2 н/о н/о +18.5 +17.8 96 +20 +20 1018.2 1004.5 21
01 17.06 С 2 н/о н/о +18.5 +17.8 96 +20 +20 1017.6 1004.0
02 17.06 н/о н/о +18.7 +18.0 96 1017.9 1004.3
03 17.06 н/о н/о +18.6 +18.1 97 1018.2 1004.5
04 17.06 н/о н/о +18.8 +18.3 97 1017.8 1004.2
05 17.06 н/о н/о +19.6 +18.4 93 1017.9 1004.3
06 17.06 нст 1 15 км {дождь} 9/8 1200 м
[Sc Ac lent Ci fib]
+21.6 +18.6 83 +26 +27 душно 1018.3 1004.8 +18.4 22
07 17.06 В 2 15 км 6/6 1200 м
[Sc Ci fib]
+23.2 +19.0 77 +29 +33 душно 1018.3 1004.9
08 17.06 30 км 5/3 1200 м
[Sc Ci fib]
+24.7 +17.9 66 1018.3 1004.9
09 17.06 нст 2 30 км 5/5 1200 м
[Sc Ci fib]
+26.3 +18.5 62 +31 +39 душно 1018.4 1005.1
10 17.06 30 км 5/5 1000 м
[Cu med, cong Ci fib]
+26.7 +16.9 55 1018.3 1005.0
11 17.06 30 км 8/5 1080 м
[Cb calv Ci fib]
+27.7 +16.4 50 1017.9 1004.7
12 17.06 С 4 25 км 9/9 900 м
[Cb calv Ci fib]
+26.5 +17.6 58 +31 +32 душно 1018.0 1004.7
13 17.06 С 4 25 км 9/8 1080 м
[Cb calv Ci fib]
+27.2 +16.2 51 +31 +32 душно 1018.0 1004.7
14 17.06 СВ 5 30 км 6/1 800 м
[Cu med, cong Ac lent Ci fib]
+26.2 +18.9 64 +31 +35 очень
душно
1017.7 1004.4
15 17.06 В 4 30 км 5/1 1000 м
[Cu med, cong Ac lent Ci ing]
+26.4 +16.7 55 +30 +33 душно 1017.4 1004.1
16 17.06 СВ 4 30 км 5/0
[Ac lent Ci ing]
+25.1 +17.1 61 +29 +31 душно 1017.1 1003.8
17 17.06 СВ 2 30 км 8/0
[Ac lent Ci sp]
+24.2 +17.0 64 +28 +29 душно 1017.1 1003.7
18 17.06 СВ 2 30 км 4/0
[Ci sp]
+23.9 +16.9 65 +28 +28 душно 1017.2 1003.8 +28.0
19 17.06 30 км 4/0
[Ci sp]
+22.5 +17.6 74 1017.7 1004.2
20 17.06 25 км 5/0
[Ci sp]
+20.8 +18.0 84 1017.7 1004.2
21 17.06 В 1 н/о н/о +19.9 +18.0 89 +24 +24 комфорт 1018.2 1004.6
22 17.06 В 1 н/о н/о +19.5 +17.8 90 +23 +23 комфорт 1018.0 1004.4
23 17.06 В 1 н/о н/о +18.9 +17.6 92 +21 +21 комфорт 1017.9 1004.3
00 18.06 В 3 н/о н/о +18.4 +15.5 83 +19 +19 1017.8 1004.1
01 18.06 В 2 н/о н/о +18.2 +14.3 78 +19 +19 1017.5 1003.8
02 18.06 н/о н/о +17.5 +14.4 82 1017.4 1003.7
03 18.06 ЮВ 2 н/о н/о +16.5 +13.6 83 +17 +17 1017.8 1004.0
04 18.06 н/о н/о +16.7 +14.4 86 1017.8 1004.1
05 18.06 СВ 1 н/о н/о +18.6 +13.5 72 +20 +20 1017.9 1004.2
06 18.06 нст 2 40 км 4/0
[Ac lent Ci fib]
+21.5 +13.7 61 +24 +28 комфорт 1017.9 1004.4 +16.3
07 18.06 СВ 2 40 км 4/0
[Ac lent Ci fib]
+23.3 +11.1 46 +26 +33 жарко 1018.0 1004.5
08 18.06 45 км 4/1 1200 м
[Cu med, cong Ci fib]
+24.6 +12.6 47 1017.8 1004.4
09 18.06 нст 1 45 км 5/1 1000 м
[Cu med, cong Ac lent Ci fib]
+25.7 +12.2 43 +27 +40 жарко 1017.8 1004.4
10 18.06 40 км 5/3 1000 м
[Cu med, cong Ac lent Ci fib]
+26.8 +13.6 44 1017.3 1004.0
11 18.06 40 км 6/4 1000 м
[Cu med, cong Ci fib]
+27.9 +14.2 43 1016.9 1003.7
12 18.06 нст 1 40 км 6/3 1200 м
[Cu med, cong Ci fib]
+28.2 +15.5 46 +31 +44 душно 1016.3 1003.1
13 18.06 40 км 5/4 1200 м
[Cu med, cong Ci fib]
+29.1 +17.3 49 1015.8 1002.7
14 18.06 35 км 5/4 1080 м
[Cu med, cong Ci fib]
+29.2 +17.1 48 1015.2 1002.1
15 18.06 нст 2 35 км 4/4 1080 м
[Cu med, cong Ci fib]
+29.2 +16.4 46 +33 +37 очень
душно
1014.8 1001.7
16 18.06 35 км 3/1 1080 м
[Cu med, cong Ci fib]
+29.1 +16.0 45 1014.3 1001.2
17 18.06 35 км 3/1 1080 м
[Cu med, cong Ci fib]
+28.4 +16.4 48 1014.4 1001.2
18 18.06 нст 1 35 км 5/3 1080 м
[Sc diur, vesp Cs]
+26.0 +17.1 58 +30 +30 душно 1014.6 1001.3 +29.7
19 18.06 ЮВ 1 35 км 6/3 1200 м
[Sc Ac lent Cs]
+25.2 +17.7 63 +29 +29 душно 1014.9 1001.6
20 18.06 35 км 6/3 1200 м
[Sc Ci]
+23.4 +17.8 71 1015.1 1001.7
21 18.06 ЮВ 1 н/о н/о +21.9 +18.3 80 +27 +27 душно 1015.0 1001.6
22 18.06 н/о н/о +21.1 +17.9 82 1015.1 1001.6
23 18.06 Ю 2 н/о н/о +20.5 +17.9 85 +25 +25 комфорт 1015.1 1001.6
00 19.06 ЮВ 2 н/о н/о +19.9 +17.5 86 +23 +23 комфорт 1014.8 1001.3
01 19.06 В 1 н/о н/о +18.9 +17.2 90 +21 +21 комфорт 1014.4 1000.8
02 19.06 СВ 1 н/о н/о +18.3 +16.8 91 +20 +20 1014.2 1000.6
03 19.06 В 2 н/о н/о +18.5 +16.6 89 +20 +20 1014.2 1000.6
04 19.06 н/о н/о +19.0 +17.0 88 1014.4 1000.8
05 19.06 н/о н/о +20.7 +17.5 82 1014.2 1000.7
06 19.06 ЮВ 3 30 км 6/1 1200 м
[Sc Ac trans Ci sp]
+23.3 +17.1 68 +28 +31 душно 1014.4 1001.0 +18.3
07 19.06 ЮВ 2 35 км 5/1 1200 м
[Sc Ci sp]
+24.8 +18.0 66 +29 +36 душно 1014.2 1000.9
08 19.06 ЮВ 3 35 км 6/3 1200 м
[Cu Sc Ci sp]
+26.0 +18.4 63 +31 +37 очень
душно
1014.0 1000.8

 

Местоположение метеостанции Гурбаново (Словакия): широта 47.87 долгота 18.20 высота над уровнем моря 124 м.

В архиве по умолчанию представлена погода в Гурбаново за последнюю неделю. Архивные данные за месяц целиком и за предыдущие месяцы, начиная с января 2011 года, Вы можете получить, выбрав интересующий диапазон дат из раскрывающегося списка и нажав кнопку "Ввод!".


*Определитесь, кто Вы:
робот инопланетянин человек

Внимание! Время в таблицах - всемирное. Для получения местного времени необходимо прибавить поправку, которая равна 1 ч.

Смотрите также архив погоды в соседних городах и на ближайших метеорологических станциях:

Погода в Тате (Венгрия) (26 км)
Погода в Тате (Венгрия) (33 км)
Погода в Пер аэропорту (Венгрия) (40 км)
Погода в Дьере (Венгрия) (42 км)
Погода в Нитре (Словакия) (46 км)
Погода в Моховце (Словакия) (49 км)
Погода в Дудинце (Словакия) (60 км)
Погода в Мошонмадьяроваре (Венгрия) (69 км)
Погода на Базе ВВС Папа (Венгрия) (77 км)
Погода в Ясловске Богунице (Словакия) (78 км)

Пояснения к столбцам:

Ветер - указаны скорость ветра в м/с - средняя за 10 мин, порывы в срок и между сроками (в фигурных скобках) и направление, откуда дует ветер: С - северный, СВ - северо-восточный, В - восточный, ЮВ - юго-восточный, Ю - южный, ЮЗ - юго-западный, З - западный, СЗ - северо-западный.
Видимость - горизонтальная дальность видимости в метрах или километрах. При видимости от 1 до 10 км при отсутствии осадков обычно наблюдается дымка, при ухудшении видимости до 1 км и менее - туман. В сухую погоду видимость может ухудшаться дымом, пылью или мглою.
Явления - указаны атмосферные явления, наблюдавшиеся в срок или в последний час перед сроком; фигурными скобками обозначены явления, наблюдавшиеся между сроками (за 1-3 часа до срока); квадратными скобками обозначены град или гололедные отложения с указанием их диаметра в мм.
Облачность - указаны через наклонную черту общая и нижняя облачность в баллах и высота нижней границы облаков в метрах; квадратными скобками обозначены формы облаков: Ci - перистые, Cs - перисто-слоистые, Cc - перисто-кучевые, Ac - высококучевые, As - высокослоистые, Sc - слоисто-кучевые, Ns - слоисто-дождевые, Cu - кучевые, Cb - кучево-дождевые. Подробнее классификацию облаков см. в Атласе облаков (PDF).
T - Температура воздуха - температура, измеренная на высоте 2 м над землей.
Td - Температура точки росы - температура, при понижении до которой содержащийся в воздухе водяной пар достигнет насыщения.
f - Относительная влажность воздуха - влажноcть воздуха, измеренная на высоте 2 м над землей.
Te - Эффективная температура - температура, которую ощущает одетый по сезону человек в тени. Характеристика душности погоды. При расчете учитывается влияние влажности воздуха и скорости ветра на теплоощущения человека.
Tes - Эффективная температура на солнце - температура, которую ощущает человек, с поправкой на солнечный нагрев. Характеристика знойности погоды. Зависит от высоты солнца над горизонтом, облачности и скорости ветра. Ночью, в пасмурную погоду, а также при ветре 12 м/с и более поправка равна нулю.
P - Атмосферное давление - приведенное к уровню моря атмосферное давление.
Po - Атмосферное давление - измеренное на уровне метеостанции атмосферное давление.
Tmin - Минимальная температура - минимум температуры воздуха на высоте 2 м над землей.
Tmax - Максимальная температура - максимум температуры воздуха на высоте 2 м над землей.
R - Количество осадков - Количество выпавших осадков за период времени, мм. При наведении курсора мыши на число - период времени, за который выпало указанное количество осадков.
R24 - Количество осадков - Количество выпавших осадков за 24 часа, мм.
S - Снежный покров - Высота снежного покрова, см. При наведении курсора мыши на число - состояние снежного покрова и степень покрытия местности в баллах.